Orbital Elements at Epoch 2459000.5 (2020-May-31.0) TDB
Reference: JPL 29 (heliocentric ecliptic J2000)
Element | Value | Uncertainty (1-sigma) | Units |
e | .156952576433657 | 3.836e-08 | |
a | 2.791311383844977 | 1.3498e-08 | au |
q | 2.353207870521911 | 1.1104e-07 | au |
i | 3.848840776732514 | 4.1279e-06 | deg |
node | 332.2514423929359 | 5.5665e-05 | deg |
peri | 12.4634692004409 | 5.7025e-05 | deg |
M | 34.33347363887214 | 1.2041e-05 | deg |
tp | 2458838.047611515635 (2019-Dec-20.54761152) | 5.6852e-05 | TDB |
period | 1703.377306633996 4.66 | 1.2355e-05 3.383e-08 | d yr |
n | .2113448374578781 | 1.533e-09 | deg/d |
Q | 3.229414897168043 | 1.5616e-08 | au |
|
| | Orbit Determination Parameters
Additional Information
|